Location: Harburg
(48.7667°N, 10.6667°E)
Time: 15:47:26
(UTC+00:00)

Cosmos 1536 Rocket - Pass Details

Date: 18 September 2020
Orbit: 606 x 632 km, 82.5° (Epoch: 24 October)

Event Time Altitude Azimuth Distance (km) Brightness Sun altitude
Rises 18:31:25 0° 355° (N) 2,914 7.3 -11.9°
Reaches altitude 10° 18:33:46 10° 3° (N) 2,007 6.4 -12.3°
Maximum altitude 18:38:00 42° 75° (ENE) 900 4.0 -13.0°
Enters shadow 18:41:15 16° 141° (SE) 1,648 5.2 -13.5°
